Find Starlink 31566

NORAD ID: 59475 Int'l Des: 2024-068 Owner: SPXS Country: US Constellation: starlink operational
LEOCIRCULAR

Live Position

Loading 3D Globe...

About Starlink 31566

Description loading...

Upcoming Passes

Passes for default location (London). Set your location on the main map for personalized predictions.

Altitude History

Loading altitude history...

Two-Line Element Set

1 59475U 24068W 26124.59149712 .00000584 00000-0 30741-4 0 9999
2 59475 43.0025 78.6835 0000703 293.3735 66.7042 15.27572496117074
Epoch: May 4, 2026 • Age: 7 hours

Current Status

Altitude 484.2 km
Velocity 7.62 km/s
Sub-Earth Point -7.11°S, 82.35°E
Launch Date Apr 10, 2024
Age 2 years
Type internet

Technical Details

Classification Payload
Mass 730.00 kg
Dry Mass 700.00 kg
Total Mass 730.00 kg
Length 0.30 m
Diameter 4.10 m
Span 29.00 m
Shape Box + pan
Manufacturer SPXS
Bus Type Starlink V2M
Phase Status In Orbit
Owner/State SPXS/US

Most Searched